User: anonymous   Login
Location: Guferjoch
(46.7462°N, 8.4506°E)
Time: 00:47:16
(UTC+00:00)
Language:

Cosmos 1447 Rocket - Orbit

View from above orbital plane
View from above orbital plane
View from above satellite
View from above satellite

Ground track
Ground track

The orbit data is extracted from the following two-line orbital elements,

1 13917U 83021B   20272.44816941 +.00000152 +00000-0 +13783-3 0  9998
2 13917 082.9404 075.7521 0029525 132.6414 282.4769 13.76858583884351
Epoch (UTC): 28 September 2020 10:45:21
Eccentricity: 0.0029525
inclination: 82.9404°
perigee height: 953 km
apogee height: 997 km
right ascension of ascending node: 75.7521°
argument of perigee: 132.6414°
revolutions per day: 13.76858583
mean anomaly at epoch: 282.4769°
orbit number at epoch: 88435

The dashed part of the orbit path shows where the satellite is in the earth's shadow,  

DLR